TimeCDT,TemperatureF,Dew PointF,Humidity,Sea Level PressureIn,VisibilityMPH,Wind Direction,Wind SpeedMPH,Gust SpeedMPH,PrecipitationIn,Events,Conditions,WindDirDegrees,DateUTC
12:14 AM,32.0,24.8,75,30.32,10.0,WSW,8.1,-,N/A,,Overcast,240,2012-10-27 05:14:00
12:33 AM,30.2,24.8,80,30.32,10.0,SW,8.1,-,N/A,,Overcast,230,2012-10-27 05:33:00
12:54 AM,30.2,24.8,80,30.32,10.0,SW,6.9,-,N/A,,Overcast,230,2012-10-27 05:54:00
1:13 AM,30.2,24.8,80,30.32,10.0,WSW,6.9,-,N/A,,Overcast,240,2012-10-27 06:13:00
1:33 AM,30.2,24.8,80,30.32,10.0,WSW,5.8,-,N/A,,Overcast,240,2012-10-27 06:33:00
1:54 AM,28.4,23.0,80,30.31,10.0,WSW,4.6,-,N/A,,Mostly Cloudy,240,2012-10-27 06:54:00
2:13 AM,28.4,21.2,74,30.32,10.0,West,4.6,-,N/A,,Scattered Clouds,260,2012-10-27 07:13:00
2:33 AM,28.4,21.2,74,30.31,10.0,WSW,3.5,-,N/A,,Scattered Clouds,250,2012-10-27 07:33:00
2:54 AM,28.4,21.2,74,30.31,10.0,WSW,4.6,-,N/A,,Clear,240,2012-10-27 07:54:00
3:33 AM,26.6,21.2,80,30.32,10.0,WSW,4.6,-,N/A,,Clear,250,2012-10-27 08:33:00
3:54 AM,26.6,21.2,80,30.32,10.0,West,3.5,-,N/A,,Clear,270,2012-10-27 08:54:00
4:13 AM,24.8,21.2,86,30.31,10.0,WSW,3.5,-,N/A,,Clear,250,2012-10-27 09:13:00
4:33 AM,24.8,21.2,86,30.31,10.0,West,4.6,-,N/A,,Clear,260,2012-10-27 09:33:00
4:54 AM,23.0,19.4,86,30.32,10.0,WSW,3.5,-,N/A,,Clear,250,2012-10-27 09:54:00
5:13 AM,24.8,21.2,86,30.32,10.0,West,4.6,-,N/A,,Clear,270,2012-10-27 10:13:00
5:33 AM,24.8,19.4,80,30.32,10.0,West,5.8,-,N/A,,Clear,270,2012-10-27 10:33:00
5:54 AM,23.0,19.4,86,30.32,10.0,West,4.6,-,N/A,,Clear,270,2012-10-27 10:54:00
6:14 AM,23.0,19.4,86,30.33,10.0,West,3.5,-,N/A,,Clear,270,2012-10-27 11:14:00
6:54 AM,23.0,19.4,86,30.33,10.0,WSW,3.5,-,N/A,,Clear,240,2012-10-27 11:54:00
7:13 AM,23.0,19.4,86,30.32,10.0,Calm,Calm,-,N/A,,Clear,0,2012-10-27 12:13:00
7:34 AM,21.2,19.4,93,30.33,10.0,Calm,Calm,-,N/A,,Clear,0,2012-10-27 12:34:00
7:54 AM,19.4,17.6,93,30.33,10.0,SSW,3.5,-,N/A,,Clear,210,2012-10-27 12:54:00
8:13 AM,21.2,17.6,86,30.33,10.0,Calm,Calm,-,N/A,,Clear,0,2012-10-27 13:13:00
8:34 AM,21.2,19.4,93,30.34,10.0,SSW,3.5,-,N/A,,Clear,200,2012-10-27 13:34:00
8:54 AM,23.0,21.2,93,30.34,10.0,SSW,3.5,-,N/A,,Clear,210,2012-10-27 13:54:00
9:13 AM,26.6,21.2,80,30.34,10.0,Calm,Calm,-,N/A,,Clear,0,2012-10-27 14:13:00
9:34 AM,28.4,24.8,86,30.34,10.0,SW,4.6,-,N/A,,Clear,230,2012-10-27 14:34:00
9:54 AM,30.2,24.8,80,30.34,10.0,SW,3.5,-,N/A,,Clear,230,2012-10-27 14:54:00
10:34 AM,33.8,26.6,75,30.34,10.0,SSW,3.5,-,N/A,,Clear,210,2012-10-27 15:34:00
10:54 AM,35.6,26.6,70,30.34,10.0,SW,3.5,-,N/A,,Clear,220,2012-10-27 15:54:00
11:13 AM,37.4,26.6,65,30.33,10.0,SW,5.8,-,N/A,,Clear,220,2012-10-27 16:13:00
11:34 AM,37.4,26.6,65,30.33,10.0,SSW,8.1,-,N/A,,Clear,200,2012-10-27 16:34:00
11:54 AM,39.2,24.8,56,30.32,10.0,SW,5.8,-,N/A,,Clear,220,2012-10-27 16:54:00
12:13 PM,39.2,23.0,52,30.32,10.0,SW,12.7,18.4,N/A,,Scattered Clouds,220,2012-10-27 17:13:00
12:34 PM,39.2,23.0,52,30.31,10.0,SW,11.5,17.3,N/A,,Clear,220,2012-10-27 17:34:00
12:54 PM,41.0,21.2,45,30.30,10.0,SSW,9.2,19.6,N/A,,Scattered Clouds,200,2012-10-27 17:54:00
1:13 PM,42.8,21.2,42,30.29,10.0,South,11.5,-,N/A,,Scattered Clouds,190,2012-10-27 18:13:00
1:34 PM,41.0,19.4,42,30.29,10.0,South,6.9,-,N/A,,Clear,190,2012-10-27 18:34:00
1:54 PM,42.8,19.4,39,30.28,10.0,South,10.4,-,N/A,,Clear,190,2012-10-27 18:54:00
2:13 PM,42.8,19.4,39,30.27,10.0,SSW,9.2,-,N/A,,Clear,200,2012-10-27 19:13:00
2:34 PM,42.8,17.6,36,30.26,10.0,South,6.9,-,N/A,,Clear,170,2012-10-27 19:34:00
2:54 PM,42.8,19.4,39,30.25,10.0,SSE,9.2,-,N/A,,Clear,160,2012-10-27 19:54:00
3:13 PM,42.8,19.4,39,30.24,10.0,South,8.1,-,N/A,,Clear,190,2012-10-27 20:13:00
3:34 PM,44.6,21.2,39,30.23,10.0,South,9.2,18.4,N/A,,Clear,180,2012-10-27 20:34:00
3:54 PM,42.8,21.2,42,30.23,10.0,South,8.1,-,N/A,,Clear,190,2012-10-27 20:54:00
4:13 PM,42.8,23.0,46,30.23,10.0,South,10.4,-,N/A,,Scattered Clouds,180,2012-10-27 21:13:00
4:34 PM,44.6,24.8,46,30.23,10.0,SSW,10.4,-,N/A,,Mostly Cloudy,200,2012-10-27 21:34:00
5:13 PM,41.0,26.6,57,30.24,10.0,South,11.5,-,N/A,,Clear,170,2012-10-27 22:13:00
5:34 PM,39.2,26.6,61,30.24,10.0,South,8.1,-,N/A,,Clear,170,2012-10-27 22:34:00
5:53 PM,37.4,26.6,65,30.24,10.0,SSE,9.2,-,N/A,,Scattered Clouds,150,2012-10-27 22:53:00
6:13 PM,35.6,26.6,70,30.24,10.0,SSE,5.8,-,N/A,,Clear,150,2012-10-27 23:13:00
6:34 PM,33.8,26.6,75,30.25,10.0,SSE,5.8,-,N/A,,Clear,150,2012-10-27 23:34:00
6:53 PM,33.8,26.6,75,30.25,10.0,SE,5.8,-,N/A,,Scattered Clouds,140,2012-10-27 23:53:00
7:13 PM,32.0,26.6,80,30.26,10.0,SSE,6.9,-,N/A,,Clear,150,2012-10-28 00:13:00
7:34 PM,33.8,26.6,75,30.27,10.0,SE,6.9,-,N/A,,Scattered Clouds,140,2012-10-28 00:34:00
7:53 PM,33.8,26.6,75,30.27,10.0,SE,6.9,-,N/A,,Scattered Clouds,140,2012-10-28 00:53:00
8:13 PM,33.8,26.6,75,30.27,10.0,SE,6.9,-,N/A,,Clear,140,2012-10-28 01:13:00
8:53 PM,33.8,28.4,81,30.27,10.0,SSE,6.9,-,N/A,,Scattered Clouds,150,2012-10-28 01:53:00
9:14 PM,33.8,28.4,81,30.26,10.0,SSE,6.9,-,N/A,,Scattered Clouds,150,2012-10-28 02:14:00
9:33 PM,33.8,28.4,81,30.26,10.0,SSE,6.9,-,N/A,,Overcast,160,2012-10-28 02:33:00
9:53 PM,33.8,28.4,81,30.26,10.0,South,5.8,-,N/A,,Overcast,170,2012-10-28 02:53:00
10:14 PM,33.8,28.4,81,30.27,10.0,South,4.6,-,N/A,,Overcast,170,2012-10-28 03:14:00
10:33 PM,33.8,28.4,81,30.27,10.0,South,6.9,-,N/A,,Overcast,180,2012-10-28 03:33:00
10:53 PM,33.8,28.4,81,30.27,10.0,South,5.8,-,N/A,,Overcast,180,2012-10-28 03:53:00
11:33 PM,33.8,28.4,81,30.27,10.0,South,3.5,-,N/A,,Mostly Cloudy,170,2012-10-28 04:33:00
11:53 PM,33.8,28.4,81,30.27,10.0,SSE,3.5,-,N/A,,Overcast,150,2012-10-28 04:53:00